Torna al catalogo

STARLINK-32498

AttivoComunicazioniVLEO
NORAD 61966·PAYLOAD·🇺🇸 United States

Lanciato Nov 14, 2024 da Cape Canaveral Space Force Station

Loading…

Prossimi Passaggi (prossime 24 ore)

TLE

AggiornatoSource: CelesTrak SupGP

Epoca: Sep 14, 2026, 23:00 UTC

1 61966C 24210H   26257.95881944 -.00037799  00000+0 -13691-2 0  2572
2 61966  43.0006 176.2537 0001215 263.4288 176.7848 15.27595968    15

Traccia STARLINK-32498 in tempo reale con AllMySat

Download on the App Store